Wind_Speed
20 16 17 19 19 18 17 15 14 13 12 11 10 11 12 12 11 11 12 12 12 13 13 14 15 16 17 17 18 19 17 17
20 17 19 20 19 19 18 17 16 15 13 12 12 12 11 11 11 11 10 9 9 11 13 14 16 16 18 18 20 21 20 20
22 20 20 21 20 20 19 18 17 17 15 14 14 13 12 11 10 9 8 8 9 11 13 15 17 18 19 20 20 22 23 23
24 23 21 21 21 20 20 19 19 18 16 15 14 13 11 11 9 8 8 10 13 15 17 19 20 21 22 24 24 24 24 24
25 24 24 24 22 20 21 22 21 19 18 16 15 14 12 11 10 9 11 13 15 17 20 22 24 24 25 26 26 26 26 26
27 26 27 26 24 23 23 22 22 21 18 17 15 15 13 13 11 12 13 15 18 21 24 25 24 24 25 25 25 24 23 23
29 28 29 27 28 26 23 23 23 22 20 18 18 17 15 14 13 14 16 19 23 25 27 26 26 28 27 26 26 25 26 25
31 30 30 32 31 27 24 24 24 23 20 19 20 18 17 15 15 17 19 22 25 26 27 26 27 28 28 29 29 29 29 30
31 33 32 31 31 28 26 27 25 23 21 21 20 20 18 16 18 19 21 24 26 26 27 27 28 27 28 29 30 31 31 32
33 34 34 34 32 30 29 28 27 24 24 23 21 20 19 19 21 21 22 25 26 26 26 27 27 26 26 28 29 30 31 32
35 35 35 34 33 31 31 29 27 26 25 23 22 21 21 21 23 23 24 26 27 27 28 27 26 26 25 27 27 27 28 29
33 34 34 34 34 32 32 32 30 27 26 24 23 22 22 23 24 24 25 27 28 28 29 29 27 25 24 26 26 27 28 30
32 33 34 35 37 35 35 33 29 28 27 25 24 23 23 24 24 25 26 27 28 29 28 28 27 25 23 21 24 25 27 28
35 35 36 37 36 35 33 33 31 29 28 26 25 24 24 25 25 25 26 28 28 27 27 27 27 26 26 25 22 23 24 26
35 37 37 37 37 37 37 36 34 31 30 27 26 25 25 24 26 25 26 28 26 26 26 24 25 26 26 26 29 28 26 24
39 36 40 39 40 39 37 33 28 29 30 28 27 25 24 24 24 24 26 27 25 26 24 23 24 24 25 25 26 28 30 30
45 39 33 41 43 41 36 33 32 31 31 30 27 25 24 20 19 25 26 25 24 24 22 22 22 22 22 23 24 26 28 31
47 42 34 38 44 41 38 37 32 31 31 29 26 25 22 16 21 23 23 24 24 22 22 20 20 20 21 23 24 25 27 29
50 46 39 36 40 42 41 36 31 31 31 28 26 22 17 16 21 21 23 23 22 21 21 19 18 18 19 21 23 25 26 28
48 46 39 34 35 42 42 35 31 31 31 28 23 19 15 19 19 22 23 21 20 19 19 18 16 17 18 20 22 23 25 26
Wind_Direction
268 258 235 229 231 233 239 243 244 243 248 262 278 295 304 307 303 303 304 306 310 313 315 317 317 318 314 313 307 302 302 295
264 252 233 232 237 240 244 242 246 247 252 267 281 296 303 300 299 300 299 304 314 320 322 320 315 315 312 308 303 302 296 289
257 250 237 234 236 246 239 241 246 248 256 268 285 296 298 295 291 287 289 304 313 323 326 324 323 319 312 306 300 296 293 292
251 247 239 238 242 240 241 245 246 249 257 269 283 290 286 283 272 267 279 297 310 319 321 320 320 318 317 313 308 303 297 292
248 248 243 242 240 244 247 249 247 250 259 271 282 283 281 270 258 267 284 301 311 319 323 324 323 319 313 306 301 299 298 295
243 243 241 241 240 246 251 247 248 253 262 276 277 277 272 263 261 273 289 304 314 320 322 321 318 313 309 305 302 299 297 294
244 241 240 246 246 250 250 248 249 255 264 276 278 275 267 262 268 280 296 307 315 318 319 319 319 317 315 312 312 313 312 310
243 246 242 242 247 250 251 249 251 254 265 273 274 272 264 262 274 288 301 310 313 316 317 317 318 316 316 316 316 315 315 315
243 244 244 246 250 250 252 253 253 257 266 271 269 268 260 263 275 290 304 312 314 314 313 315 317 317 317 316 318 320 320 316
243 243 243 243 247 249 251 251 250 256 264 267 265 262 258 264 277 291 305 309 310 309 309 312 315 315 316 317 318 320 319 315
242 239 240 243 242 247 250 249 249 256 263 263 262 258 258 267 279 294 304 307 309 309 309 310 313 316 319 318 319 322 320 316
238 237 239 240 242 246 247 248 250 255 261 259 258 256 259 269 281 293 302 308 309 308 309 311 314 317 320 320 326 323 319 319
246 242 242 241 243 244 250 250 252 257 259 257 256 256 262 270 280 292 301 307 307 306 307 309 313 316 318 321 319 320 321 325
245 243 242 243 241 241 242 244 247 253 254 255 255 256 262 270 278 290 301 305 304 304 307 309 312 318 319 321 320 321 326 327
259 250 245 242 237 236 239 243 247 253 253 254 254 255 259 266 278 291 302 301 300 305 305 309 313 318 321 323 324 329 327 325
267 268 255 243 238 238 244 247 250 252 251 252 252 252 255 263 279 294 301 299 304 304 305 310 313 317 320 322 325 324 325 326
268 262 264 253 244 243 241 238 243 249 247 250 248 248 252 262 279 295 298 299 302 301 305 309 312 314 318 322 323 324 325 327
265 257 254 258 252 242 236 237 244 246 246 247 245 245 248 257 281 293 296 299 299 300 303 307 310 315 318 321 322 326 329 330
262 260 250 259 256 241 235 236 235 238 242 242 239 239 240 260 283 290 296 296 297 299 302 308 312 313 317 320 325 329 330 332
257 256 254 265 266 240 237 233 232 236 241 238 233 223 241 264 279 288 292 292 294 299 303 305 309 313 321 325 328 331 331 333
Height
3146 3146 3147 3149 3151 3153 3154 3155 3157 3158 3159 3159 3159 3159 3159 3159 3158 3158 3157 3156 3156 3155 3154 3153 3152 3150 3149 3149 3148 3147 3148 3148
3142 3143 3144 3146 3147 3150 3151 3152 3154 3155 3155 3156 3156 3156 3155 3155 3156 3155 3154 3154 3153 3152 3151 3150 3148 3147 3146 3145 3144 3143 3143 3142
3139 3139 3140 3143 3144 3145 3147 3149 3150 3151 3152 3153 3153 3153 3152 3153 3153 3152 3152 3151 3151 3150 3149 3148 3146 3145 3143 3142 3141 3139 3138 3137
3135 3135 3138 3139 3140 3142 3143 3145 3146 3147 3148 3149 3149 3149 3149 3150 3149 3149 3149 3149 3148 3148 3146 3145 3143 3141 3139 3137 3135 3133 3132 3131
3130 3131 3134 3135 3137 3138 3140 3141 3143 3144 3145 3145 3145 3145 3145 3145 3146 3146 3145 3145 3145 3143 3141 3140 3138 3137 3135 3132 3130 3127 3126 3125
3125 3126 3129 3131 3132 3134 3136 3138 3139 3140 3141 3141 3141 3141 3141 3141 3142 3142 3142 3141 3139 3138 3136 3134 3134 3132 3129 3126 3124 3122 3120 3119
3120 3122 3123 3126 3127 3130 3133 3135 3135 3136 3136 3137 3137 3137 3137 3137 3137 3137 3136 3135 3134 3132 3131 3129 3127 3124 3121 3119 3116 3114 3112 3110
3114 3117 3118 3119 3121 3125 3128 3131 3132 3132 3132 3133 3132 3133 3133 3133 3133 3132 3132 3131 3129 3128 3126 3124 3122 3119 3115 3112 3109 3106 3104 3101
3109 3110 3112 3114 3116 3120 3123 3126 3127 3127 3127 3128 3128 3128 3129 3129 3129 3129 3128 3127 3125 3124 3122 3119 3116 3113 3110 3106 3103 3100 3097 3094
3104 3105 3106 3108 3111 3114 3116 3120 3122 3123 3123 3123 3123 3124 3125 3125 3124 3124 3124 3123 3121 3119 3117 3114 3112 3109 3106 3101 3098 3095 3092 3088
3094 3097 3100 3104 3105 3107 3109 3113 3116 3117 3118 3118 3118 3119 3121 3120 3120 3119 3119 3118 3116 3113 3110 3108 3106 3102 3100 3095 3093 3091 3087 3085
3088 3090 3092 3095 3100 3102 3103 3105 3109 3112 3112 3113 3113 3114 3116 3115 3115 3114 3114 3113 3110 3107 3103 3100 3099 3096 3094 3090 3086 3084 3082 3077
3081 3084 3086 3088 3091 3094 3097 3099 3103 3105 3107 3108 3108 3109 3110 3110 3110 3109 3109 3107 3104 3100 3097 3094 3092 3090 3088 3086 3082 3080 3076 3072
3074 3076 3079 3081 3084 3087 3091 3093 3096 3098 3100 3102 3103 3104 3104 3105 3105 3104 3103 3101 3098 3094 3092 3088 3085 3083 3079 3078 3078 3077 3072 3067
3067 3070 3072 3074 3076 3079 3082 3085 3088 3091 3094 3096 3097 3099 3099 3099 3099 3098 3097 3094 3092 3089 3087 3084 3080 3076 3074 3071 3067 3066 3065 3065
3056 3062 3067 3067 3068 3071 3075 3080 3084 3086 3088 3089 3091 3093 3093 3094 3093 3092 3091 3089 3086 3084 3083 3080 3076 3072 3069 3066 3062 3060 3056 3053
3046 3053 3059 3060 3060 3064 3069 3073 3076 3079 3081 3083 3085 3087 3088 3088 3087 3087 3085 3083 3081 3079 3077 3074 3071 3068 3065 3062 3060 3056 3052 3047
3036 3045 3051 3051 3053 3057 3060 3064 3069 3073 3076 3077 3080 3081 3082 3082 3081 3081 3079 3077 3076 3074 3071 3069 3066 3062 3060 3057 3055 3052 3048 3044
3028 3034 3041 3044 3047 3050 3051 3056 3062 3066 3069 3072 3074 3075 3075 3075 3076 3076 3074 3072 3070 3069 3066 3063 3061 3058 3055 3053 3050 3047 3044 3040
3019 3026 3033 3039 3041 3043 3045 3051 3057 3060 3063 3066 3068 3068 3070 3070 3071 3070 3069 3067 3066 3064 3061 3058 3056 3053 3051 3049 3046 3043 3040 3036